TimeCST,TemperatureF,Dew PointF,Humidity,Sea Level PressureIn,VisibilityMPH,Wind Direction,Wind SpeedMPH,Gust SpeedMPH,PrecipitationIn,Events,Conditions,WindDirDegrees,DateUTC
12:14 AM,-0.4,-4.0,85,30.02,3.0,North,27.6,34.5,N/A,,Overcast,360,2013-02-19 06:14:00
12:34 AM,-0.4,-4.0,85,30.03,3.0,North,23.0,33.4,N/A,,Overcast,360,2013-02-19 06:34:00
12:54 AM,-0.4,-5.8,78,30.03,7.0,North,26.5,35.7,N/A,,Overcast,360,2013-02-19 06:54:00
1:14 AM,-0.4,-5.8,78,30.04,7.0,North,23.0,34.5,N/A,,Overcast,360,2013-02-19 07:14:00
1:34 AM,-0.4,-5.8,78,30.04,7.0,North,25.3,35.7,N/A,,Overcast,360,2013-02-19 07:34:00
1:54 AM,-0.4,-5.8,78,30.05,10.0,North,28.8,39.1,N/A,,Overcast,360,2013-02-19 07:54:00
2:14 AM,-0.4,-5.8,78,30.06,7.0,North,21.9,33.4,N/A,,Overcast,360,2013-02-19 08:14:00
2:34 AM,-0.4,-5.8,78,30.06,7.0,North,23.0,35.7,N/A,,Overcast,360,2013-02-19 08:34:00
2:53 AM,-0.4,-5.8,78,30.07,5.0,North,27.6,33.4,N/A,,Overcast,360,2013-02-19 08:53:00
3:14 AM,-0.4,-5.8,78,30.08,10.0,North,24.2,31.1,N/A,,Overcast,360,2013-02-19 09:14:00
3:34 AM,-0.4,-5.8,78,30.08,4.0,North,26.5,35.7,N/A,,Overcast,360,2013-02-19 09:34:00
3:54 AM,-2.2,-5.8,85,30.09,7.0,North,23.0,36.8,N/A,,Overcast,360,2013-02-19 09:54:00
4:14 AM,-2.2,-5.8,85,30.09,7.0,North,21.9,29.9,N/A,,Overcast,360,2013-02-19 10:14:00
4:34 AM,-2.2,-5.8,85,30.10,3.0,North,24.2,33.4,N/A,,Overcast,360,2013-02-19 10:34:00
4:54 AM,-2.2,-5.8,85,30.10,3.0,North,26.5,33.4,N/A,,Overcast,360,2013-02-19 10:54:00
5:14 AM,-2.2,-7.6,78,30.12,10.0,North,25.3,31.1,N/A,,Overcast,360,2013-02-19 11:14:00
5:53 AM,-5.8,-9.4,84,30.15,4.0,North,24.2,35.7,N/A,,Overcast,350,2013-02-19 11:53:00
6:14 AM,-5.8,-9.4,84,30.16,3.0,North,25.3,34.5,N/A,,Overcast,360,2013-02-19 12:14:00
6:34 AM,-7.6,-11.2,84,30.16,7.0,North,24.2,34.5,N/A,,Overcast,360,2013-02-19 12:34:00
6:54 AM,-7.6,-11.2,84,30.18,7.0,North,19.6,31.1,N/A,,Overcast,360,2013-02-19 12:54:00
7:14 AM,-7.6,-11.2,84,30.18,7.0,North,24.2,32.2,N/A,,Overcast,360,2013-02-19 13:14:00
7:34 AM,-7.6,-11.2,84,30.19,4.0,North,26.5,32.2,N/A,,Overcast,350,2013-02-19 13:34:00
7:54 AM,-7.6,-11.2,84,30.20,3.0,North,20.7,33.4,N/A,,Overcast,360,2013-02-19 13:54:00
8:14 AM,-7.6,-11.2,84,30.22,1.8,North,25.3,32.2,N/A,,Overcast,350,2013-02-19 14:14:00
8:34 AM,-7.6,-11.2,84,30.23,1.8,North,24.2,31.1,N/A,,Overcast,350,2013-02-19 14:34:00
8:54 AM,-7.6,-13.0,77,30.23,4.0,North,21.9,32.2,N/A,,Haze,360,2013-02-19 14:54:00
9:14 AM,-7.6,-13.0,77,30.24,7.0,North,23.0,33.4,N/A,,Overcast,360,2013-02-19 15:14:00
9:34 AM,-7.6,-13.0,77,30.24,10.0,North,25.3,34.5,N/A,,Overcast,360,2013-02-19 15:34:00
9:54 AM,-7.6,-13.0,77,30.25,10.0,North,26.5,32.2,N/A,,Overcast,360,2013-02-19 15:54:00
10:14 AM,-7.6,-14.8,71,30.26,10.0,North,26.5,33.4,N/A,,Overcast,350,2013-02-19 16:14:00
10:34 AM,-7.6,-13.0,77,30.26,10.0,North,20.7,33.4,N/A,,Overcast,350,2013-02-19 16:34:00
11:14 AM,-7.6,-13.0,77,30.28,7.0,North,20.7,29.9,N/A,,Overcast,350,2013-02-19 17:14:00
11:34 AM,-7.6,-13.0,77,30.29,7.0,North,23.0,32.2,N/A,,Overcast,350,2013-02-19 17:34:00
11:54 AM,-7.6,-11.2,84,30.29,4.0,North,20.7,27.6,N/A,,Haze,350,2013-02-19 17:54:00
12:14 PM,-5.8,-11.2,77,30.29,7.0,North,24.2,31.1,N/A,,Overcast,360,2013-02-19 18:14:00
12:34 PM,-5.8,-11.2,77,30.28,10.0,North,23.0,29.9,N/A,,Mostly Cloudy,360,2013-02-19 18:34:00
12:54 PM,-5.8,-11.2,77,30.29,7.0,North,23.0,32.2,N/A,,Mostly Cloudy,360,2013-02-19 18:54:00
1:14 PM,-5.8,-11.2,77,30.30,10.0,North,20.7,26.5,N/A,,Overcast,350,2013-02-19 19:14:00
1:34 PM,-5.8,-11.2,77,30.30,7.0,North,19.6,26.5,N/A,,Overcast,350,2013-02-19 19:34:00
1:54 PM,-5.8,-9.4,84,30.30,5.0,North,19.6,28.8,N/A,,Haze,360,2013-02-19 19:54:00
2:14 PM,-5.8,-11.2,77,30.29,10.0,North,21.9,25.3,N/A,,Overcast,350,2013-02-19 20:14:00
2:34 PM,-4.0,-9.4,78,30.30,10.0,North,18.4,24.2,N/A,,Overcast,350,2013-02-19 20:34:00
2:54 PM,-4.0,-9.4,78,30.31,10.0,NNW,17.3,25.3,N/A,,Mostly Cloudy,340,2013-02-19 20:54:00
3:14 PM,-4.0,-9.4,78,30.32,10.0,North,18.4,23.0,N/A,,Mostly Cloudy,350,2013-02-19 21:14:00
3:34 PM,-4.0,-9.4,78,30.32,10.0,North,19.6,25.3,N/A,,Mostly Cloudy,350,2013-02-19 21:34:00
3:54 PM,-4.0,-9.4,78,30.32,10.0,North,18.4,24.2,N/A,,Mostly Cloudy,350,2013-02-19 21:54:00
4:14 PM,-4.0,-9.4,78,30.33,10.0,North,19.6,24.2,N/A,,Overcast,360,2013-02-19 22:14:00
4:34 PM,-4.0,-9.4,78,30.34,10.0,North,19.6,25.3,N/A,,Overcast,350,2013-02-19 22:34:00
4:54 PM,-4.0,-9.4,78,30.34,10.0,North,19.6,-,N/A,,Overcast,350,2013-02-19 22:54:00
5:14 PM,-5.8,-11.2,77,30.35,7.0,North,18.4,28.8,N/A,,Overcast,360,2013-02-19 23:14:00
6:34 PM,-7.6,-11.2,84,30.36,10.0,North,17.3,-,N/A,,Overcast,10,2013-02-20 00:34:00
6:54 PM,-7.6,-11.2,84,30.38,10.0,North,12.7,-,N/A,,Overcast,360,2013-02-20 00:54:00
7:14 PM,-7.6,-11.2,84,30.37,10.0,North,12.7,17.3,N/A,,Overcast,360,2013-02-20 01:14:00
7:54 PM,-7.6,-11.2,84,30.38,10.0,North,12.7,-,N/A,,Overcast,360,2013-02-20 01:54:00
8:14 PM,-7.6,-11.2,84,30.38,10.0,North,10.4,-,N/A,,Overcast,360,2013-02-20 02:14:00
8:34 PM,-9.4,-13.0,84,30.39,10.0,North,9.2,-,N/A,,Overcast,350,2013-02-20 02:34:00
8:54 PM,-9.4,-13.0,84,30.40,10.0,North,9.2,-,N/A,,Mostly Cloudy,350,2013-02-20 02:54:00
9:14 PM,-9.4,-14.8,77,30.40,10.0,North,10.4,-,N/A,,Scattered Clouds,350,2013-02-20 03:14:00
9:34 PM,-9.4,-14.8,77,30.40,10.0,North,12.7,-,N/A,,Scattered Clouds,360,2013-02-20 03:34:00
9:54 PM,-9.4,-14.8,77,30.41,10.0,North,11.5,-,N/A,,Clear,360,2013-02-20 03:54:00
10:14 PM,-11.2,-14.8,84,30.41,10.0,North,11.5,-,N/A,,Clear,350,2013-02-20 04:14:00
10:34 PM,-11.2,-14.8,84,30.42,10.0,NNW,12.7,-,N/A,,Clear,340,2013-02-20 04:34:00
10:54 PM,-11.2,-14.8,84,30.42,10.0,North,10.4,-,N/A,,Clear,350,2013-02-20 04:54:00
11:14 PM,-11.2,-14.8,84,30.43,10.0,North,9.2,-,N/A,,Clear,350,2013-02-20 05:14:00
11:34 PM,-11.2,-16.6,77,30.43,10.0,NNW,9.2,-,N/A,,Clear,340,2013-02-20 05:34:00
11:54 PM,-11.2,-16.6,77,30.43,10.0,North,9.2,-,N/A,,Clear,350,2013-02-20 05:54:00